Location: Unspecified
(52.4292°N, 19.3359°E)
Time: 12:24:12
(UTC+02:00)

deb Explorer IX - Pass Details

Date: 21 May 2024
Orbit: 510 x 885 km, 38.7° (Epoch: 16 June)

Event Time Altitude Azimuth Distance (km) Brightness Sun altitude
Rises 01:08:00 0° 238° (WSW) 2,784 - -17.1°
Reaches altitude 10° 01:11:37 10° 207° (SSW) 1,813 - -17.0°
Maximum altitude 01:13:14 12° 184° (S) 1,657 - -17.0°
Drops below altitude 10° 01:14:49 10° 160° (SSE) 1,764 - -16.9°
Sets 01:18:13 0° 129° (SE) 2,617 - -16.8°
